Tracking 22879 objects as of 20-Apr-2021
HD Live streaming from Space Station
objects crossing your sky now

CZ-4B R/B

Track CZ-4B R/B now!
10-day predictions


NORAD ID: 46481
Int'l Code: 2020-067D
Perigee: 433.8 km
Apogee: 659.4 km
Inclination: 97.9 °
Period: 95.4 minutes
Semi major axis: 6917 km
RCS: Unknown
Launch date: September 27, 2020
Source: People's Republic of China (PRC)
Launch site: Taiyaun Space Center, China (TSC)

Note: This is a ROCKET BODY
aabbcc
Your satellite tracking list
Your tracking list is empty




NASA's NSSDC Master Catalog

Two Line Element Set (TLE):
1 46481U 20067D   21109.87825623  .00001640  00000-0  80113-4 0  9990
2 46481  97.9377 198.4109 0163059  43.6490 317.7501 15.08922741 30870
Source of the keplerian elements: AFSPC